User: anonymous   Login
Location: Iola
(37.9240°N, 95.4000°W)
Time: 08:51:22
(UTC-05:00)
Language:

Meteor 2-10 Rocket - Orbit

View from above orbital plane
View from above orbital plane
View from above satellite
View from above satellite

Ground track
Ground track

The orbit data is extracted from the following two-line orbital elements,

1 14453U 83109B   17173.86580363 +.00000047 +00000-0 +13719-4 0  9992
2 14453 081.1677 100.5961 0105965 047.6307 313.3781 14.24674964748264
Epoch (UTC): 22 June 2017 20:46:45
Eccentricity: 0.0105965
inclination: 81.1677°
perigee height: 733 km
apogee height: 886 km
right ascension of ascending node: 100.5961°
argument of perigee: 47.6307°
revolutions per day: 14.24674964
mean anomaly at epoch: 313.3781°
orbit number at epoch: 74826

The dashed part of the orbit path shows where the satellite is in the earth's shadow,  

DLR